Satellite-Ground Cal/Val Site Overpasses Predictions

Prediction of Satellite NPP Overpassing Cal/Val Site: Antarctic Dome C

Ground Cal/Val Site Location: Latitude: -75.10, Longitude: 123.35; Satellite-Ground Site NADIR distance within 100 km.

Table of predicted overpasses for the next 14.0 days since TLE Epoch: 6/8/2012
Interval Starting Time Ending Time Minimum Distance Time Minimum Distance (km)
1 06/09/2012 14:34:38 06/09/2012 14:34:52 06/09/2012 14:34:45 87.41
2 06/10/2012 07:36:09 06/10/2012 07:36:36 06/10/2012 07:36:23 36.78
3 06/11/2012 07:17:22 06/11/2012 07:17:41 06/11/2012 07:17:31 73.40
4 06/13/2012 14:59:33 06/13/2012 14:59:57 06/13/2012 14:59:45 56.30
5 06/14/2012 14:40:43 06/14/2012 14:41:07 06/14/2012 14:40:55 52.90
6 06/15/2012 07:42:22 06/15/2012 07:42:42 06/15/2012 07:42:32 71.59
7 06/16/2012 07:23:28 06/16/2012 07:23:56 06/16/2012 07:23:42 36.44
8 06/18/2012 15:05:51 06/18/2012 15:06:01 06/18/2012 15:05:56 93.52
9 06/19/2012 14:46:49 06/19/2012 14:47:18 06/19/2012 14:47:04 17.75
